Location: Unspecified
(35.7250°N, 0.0000°E)
Time: 16:59:47
(UTC+00:00)

Tiros 1 - Pass Details

Date: 28 June 2019
Orbit: 630 x 664 km, 48.4° (Epoch: 18 July)

Event Time Altitude Azimuth Distance (km) Brightness Sun altitude
Rises 02:00:28 0° 310° (NW) 2,938 10.7 -24.8°
Reaches altitude 10° 02:03:00 10° 320° (NW) 2,023 9.9 -24.5°
Maximum altitude 02:07:12 33° 25° (NNE) 1,074 8.8 -24.1°
Drops below altitude 10° 02:11:22 10° 89° (E) 2,005 10.1 -23.6°
Sets 02:13:52 0° 99° (E) 2,909 10.8 -23.4°
